[[{"header":{"parameterUnit":"m.s-1","parameterCategory":1,"la1":30.2991,"la2":30.254,"lo1":-89.0895,"lo2":-89.0444,"dy":0.0017,"dx":0.0017,"nx":28,"ny":28,"refTime":"2024-10-08T09:00:00:Z","depth":0,"parameterNumber":2,"parameterNumberName":"U-component_of_WINDS"},"data":[0,0,0,0,0,0,0,0,0,0,0,0,0,0,0,0,0,0,0,0,0,0,0,0,0,0,0,0,0,0,0,0,0,0,0,0,0,0,0,0,0,0,0,0,0,0,0,0,0,0,0,0,0,0,0,0,0,0,-0.3464,-0.3465,0,-0.3516,-0.3516,-0.3517,-0.3497,-0.3496,-0.3495,-0.3494,-0.3549,-0.3551,-0.3554,0,0,0,0,0,0,0,0,0,0,0,0,0,-0.335,-0.3353,-0.3464,-0.3465,-0.3465,-0.3515,-0.3516,-0.3517,-0.3498,-0.3496,-0.3495,-0.3493,-0.3548,-0.3551,-0.3554,0,0,0,0,0,0,0,0,0,0,0,0,0,-0.3401,-0.3353,-0.3464,-0.3462,-0.3462,-0.3515,-0.3516,-0.3517,-0.3498,-0.3496,-0.3494,-0.3493,-0.3547,-0.3551,-0.3554,-0.3614,0,0,-0.3566,-0.3568,0,0,0,0,0,0,0,0,-0.3398,-0.3405,-0.3461,-0.3462,-0.3462,-0.3498,-0.3496,-0.355,-0.3498,-0.3484,-0.3494,-0.3492,-0.3534,-0.3538,-0.3552,-0.3616,-0.3619,-0.3567,-0.3569,-0.3571,-0.3572,0,0,0,0,0,0,0,-0.3394,-0.3403,-0.3484,-0.3462,-0.3463,-0.3459,-0.3464,-0.3506,-0.3518,-0.3485,-0.3484,-0.349,-0.3533,-0.3548,-0.3553,-0.3619,-0.3566,-0.357,-0.3572,-0.3574,-0.3735,-0.3737,0,0,0,0,0,0,-0.339,-0.34,-0.3483,-0.3486,-0.3425,-0.3462,-0.3468,-0.3489,-0.3518,-0.3521,-0.3492,-0.3489,-0.3543,-0.3549,-0.3555,-0.3627,-0.3571,-0.3574,-0.3576,-0.3733,-0.3735,-0.3737,0,0,0,0,0,0,-0.3388,-0.3398,-0.3481,-0.3443,-0.3453,-0.3466,-0.3489,-0.3491,-0.3505,-0.3523,-0.3525,-0.3505,-0.3541,-0.355,-0.3599,-0.3629,-0.3576,-0.3579,-0.3731,-0.3734,-0.3736,-0.3771,0,0,0,0,0,0,-0.3385,-0.3397,-0.342,-0.3443,-0.3455,-0.3524,-0.3491,-0.3493,-0.3512,-0.3509,-0.3535,-0.3538,-0.3541,-0.3593,-0.3603,-0.3633,-0.3582,-0.3728,-0.3732,-0.3735,-0.3768,-0.3775,-0.3781,0,0,0,0,0,-0.3381,-0.3428,-0.3421,-0.3431,-0.3483,-0.3526,-0.3532,-0.3534,-0.3514,-0.3537,-0.3548,-0.3537,-0.3623,-0.3599,-0.3609,-0.3641,-0.3726,-0.3731,-0.3735,-0.3764,-0.3773,-0.3781,0,0,0,0,0,0,-0.3409,-0.3431,-0.3424,-0.3479,-0.3501,-0.3522,-0.3552,-0.3543,-0.3571,-0.3568,-0.3569,-0.3575,-0.3626,-0.3638,-0.361,-0.37,-0.3672,-0.3679,-0.3691,-0.3699,-0.3706,-0.3703,-0.3586,0,0,0,0,0,-0.3421,-0.3453,-0.3471,-0.3519,-0.3529,-0.3539,-0.3557,-0.3556,-0.3579,-0.3588,-0.3602,-0.3625,-0.3657,-0.3678,-0.3709,-0.3768,-0.3774,-0.3795,-0.3802,-0.3807,-0.3814,-0.3847,-0.3857,-0.3752,-0.3752,-0.3752,0,0,-0.3448,-0.3464,-0.3484,-0.3525,-0.3541,-0.3575,-0.3546,-0.3583,-0.3609,-0.3594,-0.3642,-0.3653,-0.3678,-0.3733,-0.3758,-0.3744,-0.3844,-0.3813,-0.3817,-0.3821,-0.3853,-0.3862,-0.3871,-0.3755,-0.3754,-0.3754,0,0,-0.3514,-0.3528,-0.357,-0.3587,-0.3611,-0.3617,-0.3627,-0.3649,-0.3656,-0.3704,-0.3693,-0.3723,-0.3778,-0.3797,-0.3813,-0.3885,-0.3876,-0.3894,-0.3932,-0.3964,-0.3972,-0.3979,-0.4006,-0.4016,-0.39,-0.39,-0.3901,0,-0.3544,-0.3594,-0.3593,-0.3631,-0.3649,-0.3635,-0.3678,-0.3694,-0.3728,-0.3741,-0.3725,-0.3794,-0.381,-0.3869,-0.3886,-0.39,-0.3912,-0.3893,-0.3971,-0.3978,-0.3985,-0.4011,-0.4021,-0.3903,-0.3902,-0.3902,-0.3902,0,-0.3631,-0.3666,-0.3696,-0.3729,-0.375,-0.379,-0.3795,-0.3817,-0.3814,-0.3821,-0.387,-0.3888,-0.3922,-0.3935,-0.3933,-0.3994,-0.3986,-0.397,-0.3943,-0.3997,-0.4022,-0.4031,-0.3906,-0.3905,-0.3904,-0.3904,0,0,-0.3719,-0.3748,-0.376,-0.3774,-0.38,-0.3827,-0.3866,-0.3898,-0.3918,-0.3941,-0.3975,-0.4021,-0.4006,-0.4025,-0.4024,-0.4052,-0.4109,-0.4033,-0.4034,-0.4048,-0.4179,-0.4193,-0.4204,-0.4102,-0.4104,-0.4105,-0.4178,0,-0.3788,-0.3857,-0.3856,-0.392,-0.3953,-0.3939,-0.3973,-0.3993,-0.4,-0.4029,-0.4037,-0.407,-0.4048,-0.4059,-0.4086,-0.4096,-0.4136,-0.4091,-0.4135,-0.4137,-0.4132,-0.4216,-0.4231,-0.4299,-0.4187,-0.4189,-0.419,0,-0.388,-0.3905,-0.3972,-0.3992,-0.4006,-0.4037,-0.4067,-0.4094,-0.4116,-0.4119,-0.4139,-0.4133,-0.4174,-0.4143,-0.4199,-0.4168,-0.4186,-0.4193,-0.4196,-0.4202,-0.4169,-0.4227,-0.432,-0.4331,-0.4205,-0.4203,-0.4202,0,-0.3939,-0.399,-0.4037,-0.4049,-0.4074,-0.4096,-0.4107,-0.4127,-0.4146,-0.4172,-0.4185,-0.4215,-0.4232,-0.4255,-0.4258,-0.4235,-0.4315,-0.4284,-0.432,-0.432,-0.434,-0.4339,-0.4439,-0.4347,-0.4347,-0.4347,-0.4346,0,-0.4019,-0.4061,-0.4064,-0.4093,-0.414,-0.4138,-0.4184,-0.4193,-0.4211,-0.4242,-0.4231,-0.426,-0.4261,-0.4291,-0.4293,-0.434,-0.4347,-0.4351,-0.4352,-0.4354,-0.4354,-0.4368,-0.4364,-0.4349,-0.4349,-0.4348,-0.4348,0,-0.4095,-0.4098,-0.4149,-0.4167,-0.4172,-0.4206,-0.4222,-0.425,-0.4255,-0.4295,-0.4304,-0.4312,-0.4347,-0.4351,-0.4392,-0.4393,-0.445,-0.4444,-0.4443,-0.4443,-0.4479,-0.4477,-0.4594,-0.461,-0.4505,-0.4506,-0.4507,0,-0.4146,-0.4178,-0.42,-0.4219,-0.4232,-0.4263,-0.4283,-0.4281,-0.4302,-0.4329,-0.4354,-0.4387,-0.4414,-0.447,-0.448,-0.4511,-0.4508,-0.4546,-0.4513,-0.4514,-0.4511,-0.451,-0.4514,-0.4554,-0.4555,-0.4556,-0.4557,0,-0.4238,-0.4238,-0.4267,-0.4296,-0.4319,-0.4342,-0.4363,-0.438,-0.4381,-0.4405,-0.444,-0.4461,-0.4502,-0.4535,-0.4566,-0.4577,-0.4568,-0.4567,-0.4577,-0.4581,-0.458,-0.4583,-0.4463,-0.4565,-0.4564,-0.4564,-0.4563,-0.4563,-0.4305,-0.4333,-0.4353,-0.4385,-0.44,-0.442,-0.4447,-0.4455,-0.4484,-0.4517,-0.4514,-0.4553,-0.4573,-0.4613,-0.4627,-0.4657,-0.4645,-0.4659,-0.4663,-0.4668,-0.4672,-0.4572,-0.4663,-0.4662,-0.4662,-0.4662,-0.4662,0,-0.4399,-0.441,-0.4439,-0.4469,-0.4494,-0.4481,-0.4504,-0.4526,-0.456,-0.4579,-0.4605,-0.4646,-0.4678,-0.469,-0.4721,-0.4744,-0.474,-0.4752,-0.4752,-0.4755,-0.4681,-0.467,-0.4755,-0.4755,-0.4755,-0.4755,-0.4755,-0.4755,-0.445,-0.4497,-0.4499,-0.4554,-0.4565,-0.4603,-0.4617,-0.4635,-0.4651,-0.4696,-0.4722,-0.4729,-0.4746,-0.4778,-0.4807,-0.481,-0.4823,-0.4837,-0.4838,-0.477,-0.476,-0.4751,-0.4741,-0.484,-0.484,-0.491,-0.4911,-0.4912]},{"header":{"parameterUnit":"m.s-1","parameterCategory":1,"la1":30.2991,"la2":30.254,"lo1":-89.0895,"lo2":-89.0444,"dy":0.0017,"dx":0.0017,"nx":28,"ny":28,"refTime":"2024-10-08T09:00:00:Z","depth":0,"parameterNumber":3,"parameterNumberName":"V-component_of_WINDS"},"data":[0,0,0,0,0,0,0,0,0,0,0,0,0,0,0,0,0,0,0,0,0,0,0,0,0,0,0,0,0,0,0,0,0,0,0,0,0,0,0,0,0,0,0,0,0,0,0,0,0,0,0,0,0,0,0,0,0,0,-5.9972,-5.9973,0,-6.0074,-6.0076,-6.0077,-6.0003,-6.0,-5.9996,-5.9993,-6.0093,-6.0098,-6.0104,0,0,0,0,0,0,0,0,0,0,0,0,0,-5.9705,-5.971,-5.9971,-5.9973,-5.9974,-6.0074,-6.0076,-6.0077,-6.0003,-5.9999,-5.9995,-5.9992,-6.0091,-6.0098,-6.0104,0,0,0,0,0,0,0,0,0,0,0,0,0,-5.9815,-5.9712,-5.9971,-5.9949,-5.9949,-6.0074,-6.0076,-6.0077,-6.0004,-5.9999,-5.9994,-5.999,-6.0089,-6.0097,-6.0105,-6.0256,0,0,-6.0131,-6.0135,0,0,0,0,0,0,0,0,-5.9809,-5.9825,-5.9951,-5.9951,-5.995,-6.0021,-6.0018,-6.0137,-6.0005,-5.9983,-5.9993,-5.9987,-6.0072,-6.0082,-6.0112,-6.0261,-6.0265,-6.0132,-6.0137,-6.0141,-6.0143,0,0,0,0,0,0,0,-5.9802,-5.982,-6.0012,-5.9953,-5.9953,-5.9933,-5.9943,-6.004,-6.0054,-5.9984,-5.9979,-5.9993,-6.0071,-6.0104,-6.0114,-6.0266,-6.0132,-6.0139,-6.0145,-6.0148,-6.0543,-6.0548,0,0,0,0,0,0,-5.9797,-5.9814,-6.0009,-6.0015,-5.9867,-5.9941,-5.9953,-6.0003,-6.0052,-6.0055,-5.9997,-5.9989,-6.0092,-6.0104,-6.0117,-6.0296,-6.0141,-6.0149,-6.0154,-6.0537,-6.0544,-6.0549,0,0,0,0,0,0,-5.9791,-5.9815,-6.0004,-5.9914,-5.9936,-5.9951,-6.0008,-6.0008,-6.004,-6.0062,-6.0063,-6.0028,-6.0088,-6.0105,-6.0222,-6.0298,-6.0153,-6.0161,-6.0531,-6.0539,-6.0547,-6.0656,0,0,0,0,0,0,-5.9784,-5.9813,-5.9872,-5.9915,-5.9941,-6.011,-6.0013,-6.0013,-6.0056,-6.0047,-6.0092,-6.0094,-6.0086,-6.021,-6.0231,-6.0308,-6.0167,-6.0524,-6.0535,-6.0544,-6.0646,-6.0667,-6.0685,0,0,0,0,0,-5.9775,-5.9898,-5.9876,-5.9899,-6.0016,-6.0115,-6.0129,-6.0119,-6.0063,-6.0121,-6.0134,-6.0093,-6.0287,-6.0222,-6.0245,-6.0326,-6.0519,-6.0532,-6.0543,-6.0637,-6.0663,-6.0684,0,0,0,0,0,0,-5.9861,-5.9903,-5.9879,-6.002,-6.0065,-6.0102,-6.0176,-6.0146,-6.0206,-6.0195,-6.0177,-6.0188,-6.0311,-6.033,-6.0257,-6.0474,-6.0394,-6.0411,-6.0457,-6.0482,-6.0501,-6.0494,-6.0174,0,0,0,0,0,-5.9897,-5.9976,-6.0007,-6.0129,-6.0153,-6.0161,-6.0203,-6.0191,-6.0236,-6.0254,-6.0276,-6.032,-6.039,-6.0437,-6.0503,-6.0648,-6.0656,-6.0714,-6.0734,-6.075,-6.0765,-6.0842,-6.0868,-6.0589,-6.0589,-6.0589,0,0,-5.9971,-6.0004,-6.0054,-6.0147,-6.018,-6.0261,-6.0177,-6.0266,-6.0325,-6.0267,-6.038,-6.0397,-6.0444,-6.0576,-6.0635,-6.0596,-6.0844,-6.0765,-6.0778,-6.0784,-6.0857,-6.0884,-6.0907,-6.0597,-6.0596,-6.0595,0,0,-6.0147,-6.018,-6.0285,-6.0321,-6.0373,-6.0377,-6.0402,-6.0445,-6.0455,-6.0568,-6.0526,-6.0595,-6.0717,-6.0752,-6.0786,-6.0976,-6.0939,-6.0997,-6.11,-6.1175,-6.1197,-6.1217,-6.1284,-6.1308,-6.1012,-6.1013,-6.1013,0,-6.0232,-6.0354,-6.0342,-6.0435,-6.0476,-6.0429,-6.0534,-6.0568,-6.0638,-6.0667,-6.0622,-6.0774,-6.0803,-6.0942,-6.0988,-6.1017,-6.1044,-6.0992,-6.1196,-6.1215,-6.1233,-6.1297,-6.1322,-6.1019,-6.1018,-6.1018,-6.1017,0,-6.0456,-6.0541,-6.0618,-6.069,-6.074,-6.0838,-6.0839,-6.0891,-6.0874,-6.0883,-6.0998,-6.103,-6.1102,-6.1134,-6.1118,-6.1271,-6.1245,-6.1198,-6.1118,-6.1266,-6.1326,-6.135,-6.1029,-6.1026,-6.1024,-6.1023,0,0,-6.0689,-6.0753,-6.0782,-6.0814,-6.0868,-6.0932,-6.1027,-6.1099,-6.1144,-6.1193,-6.1272,-6.1376,-6.1334,-6.1372,-6.1359,-6.1426,-6.1573,-6.1371,-6.1372,-6.1407,-6.1743,-6.1778,-6.1806,-6.155,-6.1554,-6.1558,-6.1739,0,-6.0868,-6.1037,-6.1029,-6.1185,-6.1263,-6.122,-6.1302,-6.1343,-6.1354,-6.1419,-6.1429,-6.1504,-6.1442,-6.1465,-6.1529,-6.1542,-6.164,-6.1529,-6.1621,-6.1624,-6.1611,-6.1838,-6.1875,-6.2044,-6.1762,-6.1766,-6.1769,0,-6.11,-6.116,-6.1325,-6.1368,-6.14,-6.1475,-6.154,-6.1604,-6.1648,-6.1651,-6.1695,-6.1671,-6.1765,-6.1682,-6.1811,-6.1735,-6.1772,-6.1784,-6.179,-6.1798,-6.1706,-6.1851,-6.2098,-6.2123,-6.1806,-6.1803,-6.18,0,-6.1253,-6.1375,-6.149,-6.1518,-6.157,-6.1624,-6.1648,-6.1688,-6.1732,-6.1788,-6.1816,-6.1881,-6.1917,-6.1968,-6.1962,-6.1902,-6.2092,-6.2009,-6.2096,-6.2096,-6.2138,-6.2135,-6.2394,-6.2162,-6.2162,-6.2161,-6.2161,0,-6.1454,-6.1557,-6.156,-6.163,-6.1743,-6.1732,-6.1844,-6.1861,-6.1897,-6.1969,-6.1934,-6.2002,-6.199,-6.2057,-6.2052,-6.2159,-6.2175,-6.2179,-6.2176,-6.2182,-6.2182,-6.2206,-6.2194,-6.2168,-6.2166,-6.2165,-6.2164,0,-6.1645,-6.1651,-6.1773,-6.1813,-6.1825,-6.1907,-6.194,-6.2006,-6.2013,-6.2105,-6.2125,-6.2136,-6.2213,-6.2212,-6.2299,-6.2296,-6.2427,-6.2411,-6.2413,-6.241,-6.2496,-6.2488,-6.2779,-6.2816,-6.2561,-6.2564,-6.2566,0,-6.1773,-6.1851,-6.19,-6.1947,-6.1975,-6.205,-6.2095,-6.2086,-6.2134,-6.2191,-6.2249,-6.2324,-6.2382,-6.2507,-6.2522,-6.2588,-6.2573,-6.267,-6.2582,-6.2586,-6.2574,-6.2569,-6.2577,-6.2687,-6.269,-6.2692,-6.2694,0,-6.1999,-6.1998,-6.2065,-6.2135,-6.219,-6.2243,-6.2292,-6.2331,-6.2327,-6.2382,-6.2462,-6.2508,-6.2598,-6.2671,-6.2735,-6.2756,-6.2725,-6.2722,-6.2745,-6.2752,-6.275,-6.2752,-6.246,-6.2715,-6.2713,-6.2712,-6.271,-6.271,-6.2162,-6.2229,-6.2275,-6.2351,-6.2387,-6.2434,-6.2498,-6.2514,-6.2581,-6.2654,-6.2644,-6.2733,-6.2774,-6.2857,-6.2885,-6.2952,-6.2918,-6.2952,-6.296,-6.2969,-6.2979,-6.274,-6.2963,-6.2963,-6.2962,-6.2962,-6.2961,0,-6.2386,-6.2413,-6.2483,-6.2554,-6.2613,-6.258,-6.2632,-6.2684,-6.2763,-6.2805,-6.2865,-6.2955,-6.3026,-6.3047,-6.3115,-6.3165,-6.3152,-6.3183,-6.3179,-6.3185,-6.3006,-6.2979,-6.3193,-6.3193,-6.3193,-6.3192,-6.3192,-6.3192,-6.251,-6.2622,-6.2627,-6.2756,-6.2782,-6.287,-6.2903,-6.2945,-6.2979,-6.3083,-6.3143,-6.3156,-6.3189,-6.3259,-6.3323,-6.3326,-6.3353,-6.339,-6.3388,-6.3221,-6.3197,-6.3175,-6.315,-6.3396,-6.3396,-6.3561,-6.3563,-6.3564]}]]